Temp
62 62 62 61 62 62 63 63 62 62 62 61 61 60 59 58 56 54 54 56 57 59 62 59 61 63 63 63 63 63 63 63 63 62 63 63 63 59 57 57 59 59 58 58 58 57 57 58 58 60 61 61 62 62 60 58 58 56 57 61 63 61 59 58 58 60 63 66 65 61 60 58 59 58
62 62 62 62 61 62 62 62 62 62 62 61 61 61 60 60 57 57 55 56 58 58 61 62 61 62 63 63 62 63 63 63 62 63 63 63 63 58 56 56 56 56 57 57 55 55 56 58 60 61 61 60 60 59 57 57 57 56 59 63 63 60 59 58 58 59 60 61 60 59 59 58 58 58
62 61 61 62 61 62 62 62 62 62 62 61 61 61 61 60 59 58 57 54 57 60 58 61 64 62 63 64 63 64 63 63 62 62 63 63 61 58 57 56 55 56 55 55 55 56 56 56 58 59 60 60 59 58 57 57 57 59 61 60 60 59 59 59 59 61 62 62 62 61 59 59 59 59
60 61 61 62 61 62 62 62 62 62 62 62 61 61 60 60 59 59 57 56 56 58 61 61 62 63 63 63 62 62 64 63 61 63 63 63 60 59 60 56 56 56 55 55 56 58 56 55 56 58 59 59 59 58 59 58 59 59 57 56 56 56 58 58 58 61 62 62 62 61 59 59 59 59
56 58 60 61 62 63 61 61 62 61 61 61 61 61 60 59 60 59 58 56 56 58 59 60 61 63 63 61 63 62 62 62 61 62 62 62 61 61 61 59 56 55 54 54 54 55 54 54 58 58 59 60 59 58 57 56 56 54 55 54 55 55 58 58 57 60 61 61 61 59 58 58 59 59
54 55 56 60 62 62 61 61 61 61 61 61 61 61 60 60 59 60 59 57 57 57 57 58 60 61 63 60 63 62 61 61 60 62 62 62 62 62 62 60 59 54 55 54 54 55 53 53 56 55 55 55 55 55 54 53 53 54 53 50 54 55 57 58 56 57 59 60 59 57 57 57 57 57
53 54 55 57 60 61 60 60 61 61 61 61 61 61 61 60 60 60 61 58 56 57 57 59 59 60 61 61 61 62 63 62 62 62 62 62 62 63 62 61 61 54 54 53 53 53 53 53 54 53 53 54 53 53 52 53 53 52 52 49 52 53 55 55 56 56 59 59 57 57 56 56 57 56
51 53 54 57 60 60 60 60 60 60 60 60 60 60 61 60 60 60 60 60 59 58 58 58 59 59 60 61 62 63 63 61 60 62 62 62 61 62 62 61 61 56 53 53 53 53 53 52 53 53 53 53 53 53 52 52 52 51 51 50 51 51 53 52 52 53 56 57 56 55 55 56 57 58
52 54 55 57 59 60 59 60 60 60 60 60 60 60 60 60 60 60 59 59 59 57 56 58 58 59 60 61 62 63 60 59 59 61 60 60 60 61 61 61 61 56 53 53 53 52 52 52 52 52 52 53 52 52 52 51 51 51 51 50 50 51 51 52 52 53 54 53 53 56 55 55 57 59
53 53 52 53 56 58 59 59 60 60 60 60 60 59 59 60 60 59 59 59 59 58 58 58 57 57 58 59 60 61 61 58 58 58 59 60 60 58 58 60 61 58 56 55 54 53 52 52 52 52 52 52 51 51 51 51 51 51 51 50 50 50 50 50 51 52 50 52 52 54 54 53 56 58
51 51 51 51 51 52 52 54 57 59 60 60 59 60 59 60 59 59 59 59 59 58 58 58 59 58 59 59 58 60 62 60 59 57 56 55 58 58 58 57 60 58 56 54 52 53 53 53 53 52 51 51 51 51 51 51 51 50 50 49 48 48 48 48 49 51 51 51 51 50 50 49 51 55
50 50 50 50 50 51 51 50 50 48 49 55 59 60 60 59 59 59 59 59 59 58 57 57 57 58 57 58 59 60 59 57 57 58 57 54 55 55 57 58 57 56 56 55 54 52 51 51 52 51 51 51 51 51 51 51 51 50 49 48 49 48 48 47 48 49 50 50 49 47 46 47 49 49
48 48 48 48 49 51 51 50 49 47 47 46 48 55 59 59 58 58 58 58 58 58 57 57 57 57 57 57 57 54 55 55 56 57 58 56 56 56 55 56 59 57 55 55 55 54 54 54 53 52 51 51 52 51 51 52 52 51 49 49 49 49 48 48 49 49 49 50 49 47 47 47 47 46
47 47 47 48 51 49 49 48 46 44 44 45 45 45 49 56 58 58 58 58 58 58 57 57 56 55 55 56 57 54 56 59 58 55 55 54 54 54 54 54 55 56 56 54 53 55 56 55 54 54 53 54 54 52 51 52 52 51 49 49 49 48 48 48 48 48 48 48 48 47 46 46 45 45
45 45 46 47 48 47 47 47 45 43 43 42 42 43 45 47 52 57 57 58 58 57 57 57 56 56 55 56 58 56 57 57 57 57 57 55 52 52 51 50 50 54 56 54 53 54 55 56 54 54 55 55 54 53 52 51 51 50 49 49 48 48 48 47 47 47 47 47 47 46 45 45 45 46
44 44 44 46 46 45 46 46 45 44 43 42 42 42 42 44 44 46 54 58 57 57 57 57 56 56 56 56 57 57 56 54 56 56 55 54 53 52 53 53 51 51 56 53 52 52 53 55 55 54 55 56 55 54 52 50 50 49 49 48 48 48 47 47 47 47 46 46 46 45 44 45 44 44
44 43 43 44 45 44 46 46 43 42 42 42 42 43 45 47 46 42 42 46 57 59 58 57 57 57 57 56 57 59 58 57 55 55 54 54 54 54 53 52 51 50 57 54 51 50 51 53 52 52 54 55 54 54 51 50 49 49 49 48 47 47 47 47 47 47 46 46 46 45 45 45 44 45
43 42 42 42 42 42 42 42 42 41 40 40 42 44 47 51 53 49 44 44 44 49 58 58 57 59 59 58 59 60 60 58 56 55 55 57 55 53 53 55 53 52 56 53 51 49 49 51 51 50 52 53 53 53 51 49 49 49 48 47 47 47 46 47 46 46 46 45 45 45 45 45 44 44
42 42 43 43 42 41 41 42 41 39 39 40 41 44 48 51 53 56 56 54 53 53 56 59 59 60 60 60 60 61 60 60 61 60 59 59 58 57 53 54 54 52 55 56 55 51 50 50 50 50 51 50 51 51 48 48 48 48 47 47 47 46 46 46 46 45 45 45 44 44 43 44 43 43
42 42 43 42 41 41 40 41 39 39 40 40 41 43 46 48 51 54 55 50 51 55 58 59 61 60 59 55 58 56 59 60 60 57 54 54 53 53 52 51 50 50 53 55 52 50 47 49 50 47 42 46 47 46 48 47 48 47 47 46 46 46 46 45 45 44 44 44 44 43 43 42 42 42
42 42 43 42 41 40 40 40 37 38 39 40 40 41 43 46 48 51 53 44 43 43 43 44 44 43 45 47 48 48 49 56 54 54 52 52 55 52 51 51 49 50 51 53 54 53 46 46 48 43 40 41 43 43 44 46 47 47 46 46 46 46 45 45 44 44 44 44 43 43 42 42 42 42
41 41 43 44 41 39 39 38 37 38 39 39 39 40 41 43 45 48 52 50 47 41 42 43 43 44 44 44 45 46 47 48 51 55 54 55 56 53 53 50 51 49 49 51 55 52 45 46 46 43 40 41 40 39 39 44 47 47 46 46 46 45 45 44 43 44 44 43 43 42 42 42 43 42
39 40 41 42 41 40 39 37 37 37 39 38 39 40 40 40 42 45 50 51 50 50 50 49 49 49 48 50 51 51 45 47 52 58 59 54 53 52 54 52 48 46 46 52 56 54 44 46 45 46 42 38 40 39 40 43 46 47 47 47 46 45 45 43 43 43 44 43 43 43 43 43 43 41
38 38 38 39 39 38 37 37 37 37 38 38 39 40 38 38 39 43 45 46 50 51 51 50 49 48 48 49 48 49 49 50 55 56 57 55 55 54 55 51 53 52 50 47 54 52 44 47 46 49 46 42 39 41 42 43 44 45 45 45 45 44 44 43 43 43 43 43 44 44 44 44 44 42
36 37 37 37 39 38 37 37 37 38 38 38 39 39 37 38 39 40 40 44 47 51 49 48 47 47 47 47 47 47 48 49 51 52 51 53 56 54 52 51 49 52 47 48 52 55 47 49 48 48 44 42 41 41 43 43 44 44 45 45 44 44 44 43 43 42 43 43 43 43 43 44 44 44
36 36 37 37 38 37 37 37 37 37 38 38 39 37 37 38 38 43 45 46 49 49 48 47 47 46 46 46 45 45 45 45 47 49 49 49 53 55 56 56 54 51 49 50 50 57 51 49 51 49 45 43 41 42 41 42 43 43 45 45 45 45 45 43 43 42 42 42 42 42 42 44 44 44
36 36 36 37 39 37 37 37 37 37 37 38 37 37 37 38 39 42 44 46 47 46 46 46 45 45 45 44 44 44 44 44 45 45 46 46 48 47 47 49 52 53 49 48 51 55 55 50 51 52 48 46 42 41 41 40 41 43 42 43 43 44 45 44 43 43 43 43 42 42 42 42 42 42
35 35 36 37 37 37 38 37 37 37 37 37 37 37 37 38 39 41 41 42 43 42 42 42 42 42 43 44 44 44 44 44 45 45 46 46 47 47 47 46 46 46 49 51 52 55 55 51 50 52 52 48 44 41 40 42 42 42 41 42 43 44 45 45 44 44 44 44 43 43 42 41 41 42
36 37 37 37 37 37 38 37 38 38 38 37 37 37 37 40 39 39 40 40 40 40 40 40 41 41 42 42 43 44 45 45 45 45 45 45 45 45 45 45 44 45 47 49 50 50 50 49 49 49 50 51 48 46 44 41 41 41 42 41 40 42 43 45 44 42 42 42 42 42 42 41 41 42
37 37 37 37 37 38 38 38 37 37 38 37 37 37 38 38 37 38 38 39 39 38 39 39 39 40 41 42 43 44 44 44 44 44 45 45 45 45 45 44 43 44 44 45 48 48 50 51 50 50 48 48 49 46 45 42 41 41 41 42 41 42 43 43 42 42 42 42 42 42 41 42 42 42
36 38 38 38 38 38 38 38 38 38 38 37 37 37 37 37 37 37 37 37 37 38 39 39 40 40 41 42 42 42 42 42 43 43 43 44 44 44 44 43 42 42 43 44 45 47 49 50 50 51 47 46 46 46 45 45 42 41 41 42 42 39 41 42 42 42 42 42 41 41 41 41 41 41
36 37 38 38 39 38 38 38 38 37 37 37 36 36 36 36 37 38 39 39 37 38 38 38 40 40 41 40 41 41 41 41 42 42 42 42 42 42 43 41 40 41 42 43 44 45 44 47 47 47 47 47 45 44 45 43 42 41 41 42 42 42 42 41 41 41 42 41 40 39 39 40 39 39
36 36 37 36 37 36 35 35 35 35 35 35 36 36 36 35 36 36 35 34 35 36 37 37 37 37 39 39 40 40 40 40 40 42 42 42 42 42 42 40 40 40 40 40 41 42 43 44 44 45 44 45 46 46 43 41 42 42 41 41 41 41 41 42 41 40 42 41 39 39 38 38 38 38
33 33 33 33 34 34 34 34 34 34 34 34 34 35 35 35 34 34 34 35 35 35 35 36 36 36 37 37 38 39 38 39 40 40 40 41 41 39 39 38 39 39 39 40 40 41 42 43 43 43 43 42 42 42 43 42 41 41 42 41 41 40 41 41 41 41 41 40 39 37 36 36 37 37
33 32 32 32 32 33 34 34 34 34 34 34 34 34 35 35 34 34 34 34 35 35 34 35 35 36 36 36 36 36 37 37 39 39 40 40 40 39 39 38 38 38 39 39 40 41 42 42 42 42 42 42 41 42 43 43 42 41 42 41 41 40 40 41 41 40 40 39 39 37 35 35 36 36
35 33 32 32 31 32 33 34 34 34 34 34 34 34 34 34 34 33 33 34 35 34 34 34 34 34 35 36 36 36 36 37 37 38 38 38 38 38 38 38 38 39 39 39 39 40 41 41 42 40 39 38 38 36 36 41 43 43 41 39 41 40 40 40 40 40 39 38 38 37 35 35 35 35
35 34 34 33 32 32 32 32 33 34 34 34 34 34 33 33 34 34 35 35 35 34 34 34 34 34 34 34 36 36 36 36 36 36 36 37 37 37 37 37 37 38 39 39 39 40 40 39 40 39 38 37 35 33 33 37 39 41 43 40 39 39 39 39 38 37 37 38 37 37 36 36 35 35
34 35 34 34 34 33 32 32 32 33 33 34 34 34 34 34 35 35 35 34 34 34 34 34 34 34 34 34 34 34 35 36 36 36 36 36 36 36 36 36 36 37 37 38 39 39 40 39 38 38 37 36 34 34 34 37 38 37 39 42 38 37 38 37 36 36 35 35 35 34 36 36 35 35
36 35 35 34 34 34 33 33 33 33 33 33 33 33 34 34 34 34 35 34 34 34 34 34 34 34 34 34 34 35 35 34 34 34 35 35 36 36 36 36 36 36 37 36 38 38 39 38 38 38 37 37 35 35 36 35 33 34 37 40 40 38 37 37 36 35 34 33 34 35 34 34 35 35
35 36 36 35 35 35 34 34 34 34 34 34 33 34 34 34 34 34 35 35 35 34 34 34 34 35 34 34 35 36 36 35 35 35 35 35 35 35 35 35 36 36 36 36 36 36 36 36 37 37 36 36 36 37 37 36 35 36 36 36 39 40 38 37 36 35 34 35 36 35 34 34 32 32
33 35 36 36 36 36 35 34 34 33 34 34 34 34 33 33 33 34 34 35 35 35 35 35 35 35 35 35 36 35 35 36 36 36 35 36 35 35 35 35 35 35 35 34 35 34 34 34 35 36 37 37 38 39 39 37 34 35 34 35 37 38 40 40 38 37 35 35 36 35 34 33 32 32
31 33 36 37 37 37 36 35 34 33 33 33 32 32 32 33 33 35 35 35 35 35 36 35 35 35 35 35 35 35 35 35 35 36 36 36 36 36 35 35 35 35 35 33 33 33 34 36 36 38 38 38 38 36 33 34 33 33 34 35 35 36 37 39 40 40 39 38 36 33 31 31 32 31
31 33 35 36 36 37 37 35 34 33 33 32 32 31 32 32 33 33 33 33 33 34 34 35 35 35 35 35 35 35 35 34 34 34 35 34 34 34 34 34 34 34 34 34 34 34 35 36 37 37 37 37 35 36 33 33 33 34 34 35 34 34 35 37 37 37 36 36 37 36 36 36 34 30
31 32 34 34 33 34 36 35 34 33 32 32 33 33 32 31 32 32 32 32 32 32 32 33 33 34 34 35 35 35 34 33 33 33 33 33 33 33 33 34 34 35 35 35 35 35 36 37 36 37 37 35 35 35 33 34 33 34 34 34 34 35 34 34 36 37 37 36 36 36 37 38 37 37
31 31 31 33 33 34 35 35 35 33 32 31 31 32 33 33 33 33 33 32 32 32 32 32 32 32 33 33 34 34 34 34 34 33 33 33 33 33 33 34 34 35 34 35 36 35 35 35 34 34 35 35 35 34 34 35 34 34 33 34 34 34 34 35 36 35 35 34 35 35 36 37 37 37
MSLP
1014.37 1014.09 1013.89 1013.73 1013.49 1013.29 1013.09 1012.93 1012.81 1012.73 1012.73 1012.69 1012.73 1012.85 1012.93 1012.97 1013.25 1013.37 1013.45 1013.21 1013.29 1013.21 1013.17 1013.57 1013.41 1013.41 1013.61 1013.85 1014.09 1014.29 1014.33 1014.33 1014.53 1014.89 1015.17 1015.49 1015.73 1015.89 1016.13 1016.41 1016.65 1016.97 1017.29 1017.57 1017.89 1018.25 1018.53 1018.77 1019.05 1019.33 1019.65 1019.97 1020.25 1020.61 1020.97 1021.29 1021.61 1021.89 1022.05 1022.21 1022.41 1022.57 1022.73 1022.89 1023.13 1023.29 1023.41 1023.53 1023.69 1023.85 1024.01 1024.13 1024.29 1024.45
1014.17 1013.85 1013.57 1013.29 1013.05 1012.85 1012.77 1012.61 1012.45 1012.37 1012.33 1012.29 1012.29 1012.29 1012.29 1012.29 1012.57 1012.49 1012.77 1012.65 1012.53 1012.81 1012.81 1012.81 1013.01 1013.09 1013.29 1013.45 1013.69 1013.77 1013.89 1013.93 1014.21 1014.53 1014.89 1015.13 1015.33 1015.53 1015.85 1016.13 1016.37 1016.65 1016.97 1017.25 1017.65 1017.97 1018.25 1018.53 1018.77 1019.13 1019.49 1019.85 1020.17 1020.45 1020.89 1021.21 1021.53 1021.81 1021.97 1022.13 1022.33 1022.53 1022.69 1022.89 1023.09 1023.25 1023.41 1023.53 1023.73 1023.89 1024.01 1024.13 1024.29 1024.41
1014.13 1013.69 1013.37 1013.05 1012.81 1012.57 1012.41 1012.21 1012.09 1012.01 1011.97 1011.89 1011.85 1011.89 1011.93 1011.97 1012.01 1012.13 1012.29 1012.73 1012.09 1012.13 1012.69 1012.57 1012.37 1012.57 1012.73 1013.01 1013.29 1013.41 1013.53 1013.61 1013.85 1014.29 1014.73 1014.77 1014.93 1015.25 1015.57 1015.81 1016.09 1016.37 1016.65 1016.97 1017.37 1017.69 1018.01 1018.29 1018.57 1018.97 1019.37 1019.73 1020.05 1020.37 1020.73 1021.09 1021.41 1021.65 1021.81 1022.05 1022.25 1022.45 1022.65 1022.81 1023.01 1023.21 1023.37 1023.49 1023.65 1023.81 1023.97 1024.09 1024.21 1024.33
1014.33 1013.69 1013.21 1012.81 1012.53 1012.29 1012.09 1011.93 1011.81 1011.73 1011.65 1011.61 1011.73 1011.73 1011.69 1011.73 1011.77 1012.01 1012.29 1012.41 1012.17 1012.01 1012.17 1012.09 1012.09 1012.09 1012.41 1012.57 1012.93 1013.09 1013.17 1013.25 1013.49 1013.81 1014.25 1014.37 1014.69 1015.13 1015.33 1015.57 1015.77 1016.09 1016.37 1016.69 1017.05 1017.37 1017.73 1018.05 1018.37 1018.77 1019.17 1019.53 1019.89 1020.21 1020.53 1020.93 1021.25 1021.49 1021.73 1021.97 1022.17 1022.37 1022.57 1022.77 1022.97 1023.13 1023.25 1023.41 1023.57 1023.73 1023.93 1024.05 1024.13 1024.25
1014.81 1014.13 1013.37 1012.69 1012.29 1012.05 1011.89 1011.69 1011.53 1011.45 1011.41 1011.45 1011.57 1011.49 1011.49 1011.53 1011.57 1011.81 1012.01 1012.13 1012.13 1011.89 1011.81 1011.81 1011.81 1011.77 1012.01 1012.45 1012.41 1012.77 1013.01 1013.21 1013.29 1013.49 1014.01 1014.33 1014.65 1014.89 1015.09 1015.33 1015.65 1015.85 1016.17 1016.45 1016.77 1017.13 1017.45 1017.77 1018.13 1018.53 1018.93 1019.29 1019.69 1020.01 1020.37 1020.77 1021.09 1021.37 1021.61 1021.81 1022.05 1022.29 1022.45 1022.65 1022.89 1023.01 1023.17 1023.33 1023.49 1023.65 1023.81 1023.93 1024.05 1024.17
1015.09 1014.57 1013.85 1012.77 1012.25 1011.93 1011.77 1011.49 1011.33 1011.21 1011.21 1011.21 1011.25 1011.13 1011.17 1011.29 1011.37 1011.37 1011.65 1011.85 1011.97 1011.89 1011.85 1011.81 1011.61 1011.73 1011.69 1012.09 1012.13 1012.37 1012.69 1013.01 1013.21 1013.49 1013.69 1013.97 1014.25 1014.61 1014.81 1015.09 1015.41 1015.73 1015.97 1016.25 1016.57 1016.89 1017.21 1017.53 1017.89 1018.29 1018.69 1019.09 1019.49 1019.85 1020.17 1020.57 1020.93 1021.17 1021.45 1021.69 1021.93 1022.17 1022.33 1022.53 1022.77 1022.97 1023.09 1023.25 1023.41 1023.57 1023.69 1023.81 1023.93 1024.01
1015.25 1014.57 1013.93 1013.05 1012.25 1011.85 1011.69 1011.45 1011.25 1011.09 1011.01 1010.89 1010.77 1010.69 1010.69 1010.77 1010.89 1011.01 1011.13 1011.45 1011.73 1011.77 1011.65 1011.45 1011.57 1011.53 1011.57 1011.69 1011.89 1011.93 1012.01 1012.25 1012.61 1012.93 1013.37 1013.69 1013.97 1014.17 1014.37 1014.65 1014.97 1015.41 1015.77 1016.05 1016.37 1016.69 1017.01 1017.29 1017.65 1018.05 1018.45 1018.85 1019.25 1019.61 1019.97 1020.33 1020.69 1020.97 1021.25 1021.53 1021.77 1022.01 1022.21 1022.37 1022.61 1022.85 1022.97 1023.13 1023.29 1023.45 1023.57 1023.69 1023.77 1023.89
1015.33 1014.69 1013.97 1013.05 1012.25 1011.69 1011.49 1011.25 1011.05 1010.85 1010.77 1010.77 1010.69 1010.61 1010.45 1010.29 1010.29 1010.53 1010.69 1010.81 1010.97 1011.21 1011.41 1011.29 1011.17 1011.25 1011.37 1011.45 1011.41 1011.57 1011.81 1012.21 1012.73 1012.89 1012.93 1013.29 1013.57 1013.77 1014.09 1014.33 1014.65 1015.05 1015.49 1015.81 1016.17 1016.49 1016.77 1017.09 1017.41 1017.81 1018.21 1018.61 1019.01 1019.41 1019.73 1020.09 1020.49 1020.77 1021.05 1021.37 1021.57 1021.81 1022.05 1022.25 1022.45 1022.69 1022.85 1023.01 1023.17 1023.33 1023.45 1023.57 1023.69 1023.77
1015.25 1014.53 1013.81 1013.09 1012.41 1011.73 1011.37 1011.05 1010.89 1010.69 1010.57 1010.45 1010.37 1010.33 1010.25 1010.29 1010.21 1010.25 1010.41 1010.49 1010.65 1010.97 1011.25 1010.93 1010.81 1010.89 1011.01 1010.97 1011.17 1011.37 1011.77 1012.17 1012.57 1012.73 1012.97 1013.29 1013.33 1013.57 1013.85 1014.21 1014.53 1014.85 1015.29 1015.65 1016.01 1016.33 1016.61 1016.89 1017.21 1017.57 1017.97 1018.37 1018.81 1019.17 1019.53 1019.93 1020.29 1020.61 1020.89 1021.17 1021.45 1021.69 1021.93 1022.17 1022.37 1022.57 1022.77 1022.93 1023.09 1023.25 1023.37 1023.49 1023.61 1023.69
1015.25 1014.97 1014.53 1013.89 1013.13 1012.29 1011.57 1011.05 1010.77 1010.53 1010.33 1010.17 1010.13 1010.05 1009.97 1009.97 1010.05 1010.17 1010.25 1010.29 1010.57 1010.73 1010.61 1010.61 1010.69 1010.73 1010.85 1011.01 1011.05 1011.01 1011.25 1011.97 1012.45 1012.77 1013.05 1013.25 1013.21 1013.65 1014.25 1014.33 1014.53 1014.93 1015.37 1015.81 1016.13 1016.37 1016.61 1016.81 1017.01 1017.33 1017.77 1018.13 1018.57 1018.97 1019.33 1019.69 1020.05 1020.37 1020.69 1021.01 1021.33 1021.61 1021.85 1022.09 1022.29 1022.49 1022.69 1022.85 1023.01 1023.13 1023.33 1023.53 1023.65 1023.69
1015.81 1015.29 1014.81 1014.41 1013.93 1013.49 1013.01 1012.45 1011.61 1010.85 1010.29 1010.01 1009.89 1009.77 1009.69 1009.61 1009.73 1009.81 1009.89 1009.93 1010.01 1010.13 1010.29 1010.33 1010.29 1010.37 1010.41 1010.45 1010.77 1010.81 1010.97 1011.37 1011.61 1012.13 1012.89 1013.29 1013.33 1013.57 1013.81 1014.29 1014.53 1014.81 1015.17 1015.45 1015.65 1015.97 1016.29 1016.61 1016.97 1017.21 1017.53 1017.89 1018.29 1018.69 1019.09 1019.45 1019.81 1020.17 1020.49 1020.81 1021.13 1021.45 1021.77 1022.01 1022.21 1022.41 1022.61 1022.77 1022.93 1023.13 1023.29 1023.49 1023.61 1023.65
1015.93 1015.57 1015.21 1014.77 1014.37 1013.93 1013.45 1013.21 1012.85 1012.77 1012.29 1010.97 1009.89 1009.49 1009.45 1009.41 1009.45 1009.45 1009.45 1009.57 1009.61 1009.73 1009.89 1009.97 1009.97 1009.97 1010.09 1010.25 1010.29 1010.53 1010.93 1011.53 1011.85 1011.69 1011.81 1012.33 1012.97 1013.29 1013.53 1013.73 1014.17 1014.69 1015.01 1015.49 1015.97 1016.21 1016.49 1016.73 1016.89 1017.17 1017.45 1017.73 1018.09 1018.49 1018.89 1019.21 1019.57 1019.85 1020.17 1020.49 1020.85 1021.17 1021.53 1021.85 1022.09 1022.29 1022.49 1022.65 1022.81 1022.97 1023.17 1023.33 1023.45 1023.57
1016.25 1015.85 1015.49 1015.09 1014.57 1014.09 1013.61 1013.13 1012.93 1012.81 1012.81 1012.65 1011.69 1010.25 1009.41 1009.13 1009.17 1009.21 1009.21 1009.21 1009.29 1009.25 1009.45 1009.57 1009.57 1009.73 1009.77 1009.81 1010.17 1010.77 1010.81 1010.73 1010.57 1011.05 1011.69 1011.97 1012.09 1012.61 1013.17 1013.57 1013.85 1014.13 1014.57 1015.17 1015.61 1016.01 1016.17 1016.53 1016.93 1017.25 1017.61 1017.77 1018.01 1018.33 1018.57 1018.93 1019.21 1019.49 1019.77 1020.13 1020.49 1020.85 1021.21 1021.57 1021.85 1022.09 1022.29 1022.41 1022.57 1022.73 1022.93 1023.21 1023.37 1023.57
1016.49 1016.13 1015.69 1015.17 1014.61 1014.17 1013.73 1013.29 1012.97 1012.73 1012.41 1012.25 1012.25 1011.93 1011.05 1009.77 1008.97 1008.81 1008.81 1008.85 1008.85 1008.89 1009.01 1009.05 1009.21 1009.33 1009.33 1009.41 1009.69 1010.09 1009.77 1009.81 1010.53 1011.37 1011.73 1011.93 1012.61 1012.93 1013.21 1013.85 1014.01 1014.13 1014.41 1014.89 1015.37 1015.53 1015.81 1016.09 1016.57 1016.93 1017.17 1017.37 1017.65 1017.97 1018.33 1018.49 1018.73 1019.05 1019.37 1019.73 1020.13 1020.49 1020.85 1021.25 1021.61 1021.89 1022.13 1022.25 1022.41 1022.61 1022.89 1023.13 1023.33 1023.49
1016.77 1016.37 1015.97 1015.49 1014.93 1014.45 1013.81 1013.29 1013.09 1012.89 1012.57 1012.21 1011.73 1011.21 1010.85 1010.57 1009.97 1008.89 1008.45 1008.37 1008.33 1008.53 1008.53 1008.53 1008.65 1008.77 1008.81 1008.81 1008.97 1009.21 1009.37 1009.77 1010.09 1010.45 1010.85 1011.53 1012.49 1012.81 1013.13 1013.37 1013.77 1014.05 1014.17 1014.61 1014.93 1015.33 1015.57 1015.85 1016.21 1016.53 1016.69 1016.97 1017.29 1017.57 1017.69 1017.89 1018.25 1018.61 1019.09 1019.49 1019.85 1020.25 1020.65 1021.01 1021.37 1021.69 1021.97 1022.17 1022.29 1022.53 1022.77 1022.93 1023.13 1023.33
1017.21 1016.73 1016.21 1015.73 1015.33 1015.09 1014.69 1014.05 1013.45 1012.89 1012.53 1012.13 1011.65 1011.13 1010.49 1009.81 1009.37 1009.17 1008.69 1008.09 1008.09 1008.13 1008.17 1008.21 1008.17 1008.29 1008.21 1008.33 1008.57 1008.81 1009.17 1009.53 1009.73 1010.13 1010.65 1011.29 1011.93 1012.21 1012.29 1012.21 1012.73 1013.09 1013.81 1014.49 1014.89 1015.05 1015.49 1015.69 1015.97 1016.33 1016.33 1016.49 1016.73 1016.93 1017.13 1017.57 1017.97 1018.37 1018.81 1019.21 1019.65 1020.05 1020.41 1020.77 1021.13 1021.41 1021.69 1021.89 1022.13 1022.41 1022.65 1022.89 1023.09 1023.29
1017.61 1017.13 1016.61 1016.01 1015.57 1015.33 1014.81 1014.25 1013.89 1013.53 1012.73 1011.85 1011.41 1010.89 1010.09 1009.17 1008.73 1008.53 1008.37 1008.25 1007.81 1007.57 1007.77 1007.85 1007.93 1007.93 1007.81 1008.01 1008.13 1008.09 1008.17 1008.57 1009.21 1009.81 1010.41 1010.77 1011.13 1011.09 1011.25 1011.45 1011.97 1012.81 1012.69 1013.65 1014.45 1014.77 1015.21 1015.45 1015.77 1016.01 1016.09 1016.33 1016.53 1016.77 1017.09 1017.41 1017.81 1018.17 1018.53 1018.93 1019.37 1019.81 1020.17 1020.49 1020.81 1021.13 1021.37 1021.65 1022.01 1022.33 1022.61 1022.85 1023.09 1023.29
1018.01 1017.57 1017.05 1016.45 1015.97 1015.61 1015.21 1014.73 1014.29 1013.81 1013.25 1012.49 1011.65 1010.73 1009.93 1009.13 1008.33 1008.01 1007.97 1007.85 1007.81 1007.69 1007.41 1007.41 1007.49 1007.25 1007.29 1007.33 1007.25 1007.37 1007.65 1008.25 1008.69 1009.09 1009.33 1009.45 1010.09 1010.73 1010.33 1010.41 1011.13 1011.85 1012.25 1012.77 1013.81 1014.61 1014.97 1015.17 1015.53 1015.77 1015.89 1016.25 1016.49 1016.53 1016.69 1017.09 1017.45 1017.85 1018.25 1018.69 1019.13 1019.57 1019.93 1020.29 1020.61 1020.93 1021.21 1021.61 1021.97 1022.29 1022.53 1022.77 1023.01 1023.25
1018.37 1017.93 1017.41 1016.93 1016.53 1016.09 1015.73 1015.21 1014.93 1014.37 1013.65 1012.89 1011.97 1010.93 1010.01 1009.21 1008.37 1007.77 1007.45 1007.45 1007.49 1007.41 1007.41 1007.05 1006.85 1006.81 1006.93 1006.97 1006.97 1007.09 1007.45 1007.49 1007.45 1007.53 1007.69 1008.05 1008.53 1009.17 1010.13 1011.09 1011.33 1011.89 1011.89 1012.33 1013.13 1013.49 1014.13 1014.97 1015.37 1015.33 1015.57 1016.01 1016.25 1016.41 1016.65 1016.93 1017.29 1017.69 1018.13 1018.53 1019.01 1019.41 1019.81 1020.17 1020.49 1020.81 1021.25 1021.65 1021.97 1022.25 1022.49 1022.77 1023.01 1023.25
1018.49 1018.17 1017.73 1017.25 1016.81 1016.45 1016.01 1015.45 1015.17 1014.77 1014.05 1013.09 1012.21 1011.13 1010.21 1009.33 1008.49 1007.69 1007.13 1006.97 1006.89 1006.85 1006.77 1006.65 1006.49 1006.45 1006.57 1006.61 1006.73 1006.85 1007.09 1007.37 1007.65 1008.05 1008.41 1008.81 1009.37 1010.09 1010.61 1010.97 1011.53 1011.85 1012.01 1011.97 1012.49 1013.05 1013.85 1014.61 1014.65 1015.09 1015.65 1015.93 1016.21 1016.41 1016.53 1016.77 1017.09 1017.53 1017.97 1018.45 1018.89 1019.29 1019.65 1020.01 1020.37 1020.85 1021.25 1021.57 1021.93 1022.21 1022.49 1022.77 1023.01 1023.25
1018.69 1018.41 1017.93 1017.49 1017.13 1016.69 1016.21 1015.69 1015.29 1014.73 1014.09 1013.25 1012.45 1011.61 1010.57 1009.69 1008.85 1007.89 1007.09 1007.01 1006.97 1006.85 1006.77 1006.65 1006.53 1006.57 1006.57 1006.49 1006.57 1006.73 1006.81 1007.05 1007.45 1007.97 1008.53 1008.93 1009.05 1009.85 1010.45 1010.73 1011.33 1011.49 1011.93 1012.09 1011.97 1012.21 1013.37 1014.37 1014.49 1015.25 1015.81 1015.97 1016.13 1016.37 1016.45 1016.65 1016.89 1017.25 1017.73 1018.25 1018.69 1019.09 1019.49 1019.85 1020.29 1020.69 1021.09 1021.53 1021.89 1022.17 1022.45 1022.73 1023.01 1023.29
1018.89 1018.57 1018.13 1017.77 1017.41 1017.01 1016.45 1015.85 1015.37 1014.77 1014.13 1013.37 1012.65 1011.85 1010.97 1009.97 1009.09 1008.17 1007.25 1006.93 1006.85 1006.85 1006.73 1006.57 1006.49 1006.45 1006.45 1006.49 1006.57 1006.49 1006.61 1006.89 1007.09 1007.49 1007.93 1008.09 1008.41 1008.97 1009.37 1009.85 1010.29 1010.77 1011.49 1011.57 1011.81 1012.29 1012.73 1013.97 1014.33 1015.09 1015.97 1016.13 1016.57 1016.69 1016.73 1016.69 1016.85 1017.13 1017.53 1017.97 1018.45 1018.89 1019.25 1019.65 1020.09 1020.49 1020.97 1021.45 1021.85 1022.21 1022.53 1022.77 1023.05 1023.33
1019.13 1018.65 1018.29 1017.93 1017.61 1017.25 1016.73 1016.17 1015.53 1014.89 1014.29 1013.69 1012.93 1012.21 1011.49 1010.65 1009.73 1008.73 1007.93 1007.29 1006.77 1006.53 1006.45 1006.25 1006.29 1006.25 1006.33 1006.37 1006.57 1006.69 1006.61 1006.73 1006.73 1006.73 1006.85 1007.69 1008.17 1008.45 1008.77 1009.21 1010.17 1011.09 1011.09 1010.77 1011.09 1011.57 1013.05 1013.65 1014.13 1014.09 1015.33 1015.77 1016.69 1016.89 1016.93 1016.85 1016.89 1017.13 1017.45 1017.93 1018.33 1018.65 1019.05 1019.53 1019.97 1020.41 1020.93 1021.41 1021.85 1022.17 1022.45 1022.73 1022.93 1023.37
1019.21 1018.89 1018.41 1017.93 1017.57 1017.13 1016.69 1016.13 1015.57 1015.01 1014.45 1013.97 1013.13 1012.49 1011.93 1011.21 1010.05 1008.97 1008.45 1007.73 1007.21 1006.57 1006.29 1006.13 1006.21 1006.25 1006.33 1006.37 1006.49 1006.69 1006.81 1007.05 1006.81 1006.65 1006.77 1007.17 1007.57 1007.97 1008.01 1008.73 1008.53 1008.41 1008.81 1010.09 1010.57 1010.89 1012.53 1012.69 1013.49 1013.49 1013.17 1013.65 1015.33 1016.85 1017.05 1017.17 1017.17 1017.29 1017.49 1017.93 1018.41 1018.85 1019.21 1019.69 1020.13 1020.45 1020.85 1021.33 1021.77 1022.09 1022.37 1022.61 1022.77 1023.21
1019.77 1019.13 1018.65 1018.21 1017.65 1017.25 1016.77 1016.25 1015.65 1015.05 1014.49 1013.93 1013.29 1012.77 1012.25 1011.49 1010.45 1009.17 1008.41 1007.49 1007.09 1006.61 1006.45 1006.37 1006.37 1006.41 1006.49 1006.57 1006.69 1006.69 1006.69 1006.65 1006.69 1006.77 1006.81 1006.89 1007.01 1007.33 1007.97 1008.81 1009.09 1008.49 1008.93 1009.49 1010.13 1010.73 1011.89 1012.13 1012.57 1013.21 1013.53 1014.13 1015.33 1016.33 1017.09 1017.25 1017.57 1017.65 1017.73 1017.81 1018.29 1018.93 1019.21 1019.73 1020.21 1020.81 1021.13 1021.41 1021.73 1022.01 1022.33 1022.49 1022.69 1022.85
1020.01 1019.57 1019.09 1018.53 1017.89 1017.41 1016.85 1016.33 1015.73 1015.17 1014.61 1013.97 1013.41 1012.93 1012.13 1010.97 1009.73 1008.33 1007.53 1007.17 1006.81 1006.73 1006.73 1006.61 1006.61 1006.65 1006.65 1006.73 1006.85 1007.09 1007.01 1006.77 1006.53 1006.57 1006.77 1006.77 1006.77 1006.97 1007.17 1007.49 1008.05 1008.73 1008.69 1008.93 1008.85 1009.37 1010.57 1011.77 1011.65 1012.41 1013.29 1014.17 1015.85 1015.81 1016.57 1017.41 1017.73 1017.89 1018.01 1018.21 1018.37 1018.65 1018.93 1019.61 1020.29 1020.89 1021.29 1021.69 1022.01 1022.21 1022.41 1022.57 1022.77 1022.97
1020.41 1019.89 1019.41 1018.77 1018.13 1017.57 1016.97 1016.41 1015.89 1015.37 1014.81 1014.09 1013.65 1012.93 1011.89 1010.85 1009.77 1008.77 1008.29 1007.77 1007.33 1007.29 1007.37 1007.33 1007.29 1007.29 1007.25 1007.09 1007.13 1007.25 1007.33 1007.25 1007.01 1006.89 1006.89 1006.81 1006.81 1007.05 1007.37 1007.45 1007.37 1007.21 1007.85 1008.81 1009.37 1009.21 1009.41 1010.25 1010.97 1011.13 1012.13 1013.13 1014.69 1016.05 1016.13 1016.65 1017.61 1018.05 1018.29 1018.53 1018.81 1019.09 1019.37 1019.65 1020.21 1020.81 1021.29 1021.65 1022.09 1022.41 1022.65 1022.89 1023.09 1023.33
1020.69 1020.13 1019.57 1019.01 1018.33 1017.69 1017.09 1016.57 1016.05 1015.49 1014.97 1014.49 1013.81 1012.97 1012.09 1011.13 1010.25 1009.57 1009.21 1009.05 1008.73 1008.21 1008.09 1008.33 1008.41 1008.37 1008.13 1007.85 1007.65 1007.61 1007.61 1007.57 1007.37 1007.09 1007.01 1007.09 1007.13 1007.17 1007.41 1007.65 1007.81 1007.89 1008.05 1008.41 1008.53 1008.33 1008.53 1009.61 1010.73 1010.89 1011.17 1012.21 1013.53 1014.57 1015.85 1016.61 1016.85 1017.17 1017.89 1018.69 1018.97 1019.29 1019.57 1019.81 1020.29 1020.81 1021.33 1021.69 1022.13 1022.49 1022.81 1023.25 1023.45 1023.53
1020.81 1020.37 1019.77 1019.13 1018.53 1017.93 1017.33 1016.77 1016.21 1015.65 1015.17 1014.73 1014.01 1013.33 1012.61 1011.73 1011.13 1010.73 1010.33 1010.01 1009.77 1009.29 1009.05 1009.05 1009.21 1009.13 1008.97 1008.69 1008.33 1007.97 1007.81 1007.73 1007.61 1007.33 1007.29 1007.25 1007.33 1007.53 1007.77 1008.17 1008.33 1008.33 1008.33 1008.45 1008.81 1009.13 1009.25 1009.37 1010.13 1011.09 1011.61 1011.57 1012.17 1013.29 1013.81 1015.37 1016.21 1017.13 1017.29 1017.77 1019.09 1019.57 1019.69 1019.93 1020.25 1020.81 1021.33 1021.73 1022.13 1022.45 1022.77 1023.05 1023.37 1023.49
1020.93 1020.41 1019.89 1019.33 1018.69 1018.17 1017.65 1017.09 1016.61 1016.21 1015.65 1015.01 1014.33 1013.77 1013.17 1012.69 1012.25 1011.85 1011.49 1010.85 1010.45 1010.45 1010.13 1009.73 1009.77 1009.85 1009.65 1009.29 1008.85 1008.41 1008.13 1008.13 1008.25 1008.05 1007.69 1007.45 1007.73 1007.69 1007.81 1008.25 1008.93 1009.05 1008.93 1008.77 1008.89 1009.13 1009.37 1009.65 1009.85 1010.49 1011.49 1012.05 1012.09 1012.89 1013.81 1015.05 1016.73 1017.01 1017.37 1017.33 1018.21 1019.49 1019.89 1020.01 1020.41 1020.77 1021.17 1021.65 1022.05 1022.45 1022.81 1023.01 1023.25 1023.41
1021.09 1020.57 1020.09 1019.61 1019.09 1018.53 1017.97 1017.45 1017.01 1016.49 1015.85 1015.25 1014.77 1014.33 1013.89 1013.49 1013.13 1012.73 1012.41 1012.01 1011.61 1011.37 1011.05 1010.65 1010.41 1010.25 1010.09 1009.85 1009.29 1009.01 1008.81 1008.81 1008.89 1008.77 1008.53 1008.17 1008.17 1008.13 1008.25 1008.45 1009.37 1009.57 1009.61 1009.37 1009.33 1009.37 1009.49 1009.77 1010.17 1010.37 1011.25 1012.17 1012.81 1013.29 1013.93 1013.89 1015.33 1017.01 1017.69 1018.09 1017.89 1018.01 1019.37 1019.97 1020.45 1020.89 1021.25 1021.65 1022.13 1022.53 1022.89 1023.21 1023.45 1023.61
1021.41 1020.89 1020.29 1019.65 1019.09 1018.57 1017.97 1017.45 1017.05 1016.77 1016.45 1016.09 1015.61 1015.13 1014.69 1014.21 1013.73 1013.25 1012.73 1012.25 1012.13 1012.13 1011.93 1011.57 1010.97 1010.45 1010.41 1010.65 1010.41 1009.81 1009.61 1009.65 1009.53 1009.37 1009.25 1009.13 1008.97 1008.85 1008.61 1008.93 1009.97 1010.01 1010.05 1010.01 1009.93 1009.97 1009.97 1010.29 1010.61 1011.05 1011.13 1011.49 1012.61 1013.97 1014.41 1015.05 1015.65 1016.53 1017.73 1018.49 1018.93 1019.45 1019.53 1019.81 1020.41 1021.05 1021.41 1021.61 1022.21 1022.81 1023.21 1023.37 1023.61 1023.85
1021.49 1021.01 1020.41 1020.01 1019.45 1019.05 1018.77 1018.37 1018.01 1017.61 1017.09 1016.65 1016.29 1015.85 1015.37 1014.97 1014.53 1014.17 1013.89 1013.77 1013.61 1013.25 1012.69 1012.49 1012.21 1011.77 1011.45 1011.33 1011.05 1010.57 1010.29 1010.41 1010.41 1010.09 1009.85 1009.85 1009.81 1009.61 1009.37 1009.77 1010.25 1010.29 1010.37 1010.61 1010.69 1010.73 1010.81 1011.13 1011.41 1011.61 1012.01 1012.45 1012.81 1013.25 1013.97 1015.65 1016.69 1016.97 1017.41 1018.41 1019.13 1019.81 1020.25 1020.45 1020.69 1021.21 1021.41 1021.65 1022.41 1022.93 1023.37 1023.69 1023.89 1024.05
1021.97 1021.53 1021.21 1020.85 1020.49 1020.01 1019.53 1019.17 1018.81 1018.45 1018.05 1017.61 1017.01 1016.61 1016.17 1015.77 1015.45 1015.17 1014.89 1014.65 1014.49 1014.17 1013.85 1013.41 1012.89 1012.65 1012.29 1012.13 1011.89 1011.49 1011.29 1011.17 1011.09 1011.05 1010.77 1010.77 1010.69 1010.61 1010.73 1010.85 1011.13 1011.17 1011.05 1011.17 1011.25 1011.25 1011.29 1011.61 1011.89 1012.45 1012.73 1013.33 1013.89 1014.61 1014.77 1014.77 1016.09 1017.21 1017.93 1018.49 1019.09 1020.05 1020.73 1020.93 1021.21 1021.41 1021.57 1021.85 1022.37 1023.05 1023.53 1023.89 1024.13 1024.29
1022.17 1022.01 1021.69 1021.45 1021.17 1020.81 1020.33 1019.89 1019.57 1019.21 1018.81 1018.45 1017.97 1017.49 1017.05 1016.65 1016.37 1016.05 1015.77 1015.57 1015.17 1014.85 1014.69 1014.41 1014.09 1013.65 1013.25 1013.05 1012.81 1012.65 1012.53 1012.29 1012.05 1011.85 1011.73 1011.53 1011.49 1011.73 1011.73 1011.69 1011.85 1011.85 1011.85 1011.81 1011.93 1011.97 1011.61 1011.61 1011.81 1012.65 1013.37 1013.73 1014.61 1015.65 1015.97 1016.25 1016.25 1017.37 1018.13 1018.89 1019.45 1020.13 1020.77 1021.13 1021.57 1021.93 1022.17 1022.45 1022.57 1023.05 1023.69 1023.97 1024.17 1024.45
1022.45 1022.29 1022.13 1021.89 1021.69 1021.41 1020.97 1020.65 1020.21 1019.81 1019.49 1019.13 1018.73 1018.33 1017.85 1017.45 1017.21 1016.93 1016.65 1016.41 1015.93 1015.61 1015.37 1015.17 1014.93 1014.73 1014.45 1014.05 1013.73 1013.65 1013.53 1013.29 1013.05 1012.81 1012.61 1012.53 1012.57 1012.65 1012.53 1012.57 1012.45 1012.45 1012.41 1012.61 1012.81 1012.65 1012.45 1012.33 1011.97 1012.13 1013.17 1014.21 1015.01 1016.29 1017.33 1017.41 1016.89 1016.69 1017.73 1019.01 1019.73 1020.45 1021.09 1021.61 1022.01 1022.25 1022.45 1022.73 1022.85 1023.05 1023.41 1023.85 1024.13 1024.45
1022.93 1022.65 1022.37 1022.17 1021.97 1021.77 1021.57 1021.25 1020.81 1020.33 1020.05 1019.73 1019.33 1019.09 1018.77 1018.41 1018.09 1017.77 1017.45 1016.85 1016.45 1016.33 1016.21 1015.89 1015.77 1015.61 1015.41 1015.17 1014.81 1014.49 1014.37 1014.29 1014.21 1013.93 1013.77 1013.65 1013.65 1013.65 1013.61 1013.57 1013.33 1013.09 1012.93 1013.33 1013.41 1013.41 1013.25 1013.33 1013.33 1013.17 1013.41 1014.37 1015.77 1017.01 1017.93 1017.85 1017.85 1017.89 1017.97 1018.93 1020.01 1020.57 1021.13 1021.69 1022.09 1022.45 1022.65 1022.77 1023.13 1023.21 1023.41 1023.77 1024.21 1024.57
1023.41 1023.05 1022.77 1022.45 1022.21 1022.01 1021.81 1021.57 1021.25 1020.81 1020.45 1020.13 1019.81 1019.49 1019.21 1018.97 1018.57 1018.21 1017.85 1017.41 1017.25 1017.01 1016.77 1016.61 1016.53 1016.33 1016.13 1016.01 1015.77 1015.57 1015.33 1015.13 1014.97 1014.85 1014.77 1014.57 1014.49 1014.65 1014.69 1014.61 1014.49 1014.33 1014.17 1014.09 1014.17 1014.33 1014.29 1014.41 1014.57 1014.61 1014.41 1015.21 1016.21 1016.81 1017.45 1017.93 1018.37 1019.25 1019.45 1019.41 1020.13 1020.93 1021.17 1021.53 1021.97 1022.49 1022.89 1023.09 1023.37 1023.61 1023.73 1023.97 1024.37 1024.77
1023.73 1023.45 1023.17 1022.93 1022.57 1022.37 1022.13 1021.85 1021.61 1021.25 1020.89 1020.57 1020.29 1020.05 1019.69 1019.29 1019.01 1018.65 1018.37 1018.25 1018.05 1017.81 1017.53 1017.29 1017.17 1017.05 1016.89 1016.69 1016.49 1016.25 1016.09 1016.05 1016.01 1015.97 1015.73 1015.53 1015.33 1015.25 1015.25 1015.17 1015.17 1015.17 1015.01 1015.05 1014.97 1014.97 1015.05 1015.37 1015.69 1015.85 1015.89 1016.13 1016.69 1017.45 1017.77 1018.49 1019.65 1020.01 1020.05 1020.01 1020.09 1020.65 1021.17 1021.37 1022.09 1022.65 1022.97 1023.45 1024.05 1024.29 1024.61 1024.85 1024.97 1025.17
1024.17 1023.77 1023.45 1023.29 1022.93 1022.61 1022.41 1022.17 1021.85 1021.61 1021.29 1021.01 1020.77 1020.49 1020.17 1019.85 1019.53 1019.21 1018.89 1018.65 1018.53 1018.37 1018.17 1017.97 1017.77 1017.53 1017.37 1017.29 1017.13 1016.73 1016.49 1016.57 1016.65 1016.53 1016.41 1016.29 1016.09 1015.93 1015.93 1015.93 1015.89 1015.89 1015.89 1016.09 1016.17 1016.29 1016.41 1016.69 1016.81 1017.01 1017.29 1017.57 1017.93 1018.17 1018.53 1019.09 1019.81 1020.21 1020.37 1020.65 1020.65 1020.57 1021.05 1021.53 1022.13 1022.57 1023.25 1023.69 1023.97 1024.21 1024.65 1024.69 1024.65 1024.97
1024.69 1024.21 1023.77 1023.45 1023.21 1022.89 1022.69 1022.45 1022.25 1021.97 1021.61 1021.33 1021.05 1020.81 1020.57 1020.37 1020.01 1019.73 1019.45 1019.17 1018.89 1018.65 1018.57 1018.49 1018.33 1018.13 1018.01 1017.81 1017.57 1017.45 1017.29 1017.13 1016.97 1016.89 1016.77 1016.65 1016.57 1016.53 1016.49 1016.45 1016.61 1016.69 1016.65 1016.93 1017.09 1017.25 1017.57 1017.81 1017.77 1017.65 1017.81 1018.17 1018.33 1018.45 1018.77 1019.41 1020.25 1020.73 1021.13 1021.45 1021.33 1021.29 1021.37 1021.49 1021.85 1022.33 1022.97 1023.57 1023.77 1024.05 1024.41 1024.53 1024.73 1024.85
1025.09 1024.69 1024.21 1023.81 1023.49 1023.17 1022.93 1022.73 1022.57 1022.37 1022.05 1021.73 1021.45 1021.25 1020.93 1020.61 1020.45 1020.17 1019.85 1019.57 1019.29 1019.05 1018.85 1018.77 1018.73 1018.57 1018.53 1018.41 1018.21 1017.97 1017.85 1017.81 1017.57 1017.41 1017.37 1017.33 1017.17 1017.09 1017.09 1017.17 1017.33 1017.45 1017.49 1017.85 1018.05 1018.33 1018.37 1018.25 1018.09 1018.05 1018.25 1018.41 1018.61 1019.05 1019.85 1020.09 1020.65 1021.21 1021.57 1021.73 1021.89 1021.89 1021.89 1021.97 1022.13 1022.29 1022.65 1023.09 1023.49 1024.13 1024.57 1024.89 1024.77 1024.85
1025.21 1024.97 1024.57 1024.17 1023.85 1023.49 1023.25 1023.09 1022.89 1022.77 1022.49 1022.13 1021.85 1021.73 1021.37 1021.05 1020.85 1020.61 1020.45 1020.21 1019.97 1019.65 1019.37 1019.13 1019.05 1018.93 1018.81 1018.69 1018.61 1018.53 1018.33 1018.13 1017.97 1017.81 1017.77 1017.89 1017.81 1017.69 1017.77 1018.01 1018.21 1018.29 1018.33 1018.53 1018.61 1018.61 1018.65 1018.61 1018.53 1018.61 1018.81 1019.01 1019.41 1019.53 1020.29 1020.81 1021.05 1021.33 1021.61 1021.89 1022.25 1022.41 1022.57 1022.57 1022.61 1022.85 1023.13 1023.25 1023.25 1023.13 1023.09 1023.45 1024.17 1024.69
1025.33 1025.13 1024.81 1024.49 1024.29 1024.01 1023.61 1023.41 1023.25 1023.09 1022.93 1022.65 1022.37 1022.09 1021.85 1021.61 1021.29 1021.13 1020.97 1020.81 1020.57 1020.37 1020.13 1019.73 1019.49 1019.41 1019.21 1018.97 1018.73 1018.65 1018.77 1018.81 1018.73 1018.49 1018.41 1018.45 1018.45 1018.45 1018.37 1018.37 1018.41 1018.57 1018.65 1018.73 1018.81 1018.93 1018.93 1018.97 1019.13 1019.17 1019.33 1019.65 1019.89 1020.25 1020.81 1021.13 1021.53 1021.69 1021.89 1022.09 1022.29 1022.45 1022.89 1023.05 1023.13 1023.21 1023.33 1023.49 1023.57 1023.53 1023.49 1023.41 1023.45 1023.37
1025.37 1025.21 1025.01 1024.69 1024.53 1024.25 1023.97 1023.73 1023.53 1023.29 1023.09 1022.97 1022.73 1022.45 1022.13 1021.89 1021.69 1021.41 1021.21 1021.13 1020.97 1020.81 1020.57 1020.37 1020.13 1019.93 1019.73 1019.49 1019.21 1018.97 1019.17 1019.17 1019.09 1019.13 1019.01 1018.89 1018.85 1018.85 1018.85 1018.77 1018.77 1018.85 1019.05 1019.09 1019.13 1019.33 1019.33 1019.41 1019.49 1019.61 1019.85 1020.09 1020.25 1020.61 1020.89 1021.13 1021.61 1021.85 1022.05 1022.25 1022.57 1022.73 1022.81 1022.89 1023.01 1023.29 1023.45 1023.77 1024.05 1023.97 1023.81 1023.77 1023.65 1023.77
Wind_Speed
10 10 11 11 10 10 10 11 10 10 8 9 9 10 11 9 9 6 8 9 8 6 8 7 8 11 9 9 8 8 9 10 11 8 10 9 8 15 19 19 19 19 19 18 18 17 17 17 18 17 17 15 16 15 13 13 13 11 11 12 11 7 10 12 12 13 12 13 11 9 9 10 9 8
10 11 11 11 10 9 10 10 9 8 8 8 9 10 9 9 10 8 7 7 7 6 7 7 5 9 10 9 9 9 10 12 13 9 9 9 9 15 19 19 19 19 18 18 17 17 18 18 18 17 17 16 16 15 14 13 13 11 12 15 12 8 10 12 12 11 11 10 9 9 10 9 8 7
10 11 11 11 9 9 10 10 9 10 9 9 9 9 9 9 10 9 5 6 5 6 7 8 5 8 10 9 9 9 9 11 13 10 10 10 12 16 16 19 19 19 19 17 17 17 18 18 19 18 17 16 16 15 14 14 13 12 15 13 11 9 11 12 11 10 8 9 9 8 8 8 7 6
12 12 12 11 10 9 9 9 8 8 8 8 7 7 8 9 8 7 7 9 8 5 6 7 8 8 9 10 11 11 9 10 15 11 11 11 12 11 10 18 19 19 19 18 18 18 18 18 19 18 17 17 16 14 15 14 15 15 13 13 10 11 12 12 11 11 11 10 10 8 8 7 6 5
12 13 14 12 10 10 11 8 7 7 7 7 7 8 7 8 8 9 8 9 7 3 4 5 6 7 9 9 11 10 9 8 9 9 6 6 8 9 9 10 17 19 19 18 18 18 18 18 18 18 18 18 17 16 16 15 15 15 14 12 11 11 12 13 11 11 11 10 9 8 8 7 6 5
11 13 14 14 10 8 9 8 8 7 7 7 8 8 8 8 8 9 8 8 8 9 3 5 2 5 9 9 9 11 11 10 8 10 10 9 10 9 9 9 10 18 18 18 19 18 18 18 18 18 18 18 17 16 16 16 15 15 14 13 12 12 12 13 12 10 10 10 9 9 8 7 6 6
11 12 12 14 11 8 7 8 8 7 7 7 8 10 9 10 9 9 10 8 8 9 7 6 6 6 7 9 10 11 10 10 11 13 11 11 9 9 10 10 9 16 18 19 18 18 18 18 18 18 18 18 17 17 17 17 16 15 15 14 13 13 13 13 12 11 10 10 10 9 8 8 7 7
11 11 12 13 13 9 8 8 8 7 7 8 7 6 6 7 8 8 9 10 8 7 8 6 8 6 8 7 7 9 8 9 8 9 10 10 11 10 9 10 9 13 19 19 19 18 18 18 19 18 18 18 17 17 17 17 16 16 15 14 14 14 13 13 13 12 11 11 10 9 9 8 8 7
12 11 12 13 14 11 9 8 7 7 8 7 7 7 6 6 6 5 7 9 7 5 8 8 5 6 7 7 8 9 10 7 7 8 8 10 11 10 9 7 8 12 19 17 18 17 17 18 19 18 18 18 18 17 17 17 16 16 15 14 14 13 13 12 12 12 11 11 10 10 9 8 7 7
11 12 13 14 16 15 11 9 8 8 9 8 8 8 8 7 6 6 5 6 8 9 10 8 6 5 8 6 7 10 10 9 8 8 5 5 7 7 6 8 7 6 8 7 9 11 13 16 18 18 18 18 18 17 17 17 17 16 15 14 13 12 12 11 12 12 11 11 10 9 8 6 6 5
12 11 11 12 13 13 13 14 13 11 9 8 8 8 8 8 7 7 9 9 9 9 10 9 9 8 7 8 8 8 10 11 12 12 8 8 5 7 10 9 7 6 8 9 12 11 11 13 12 16 18 18 18 17 17 17 17 16 15 14 14 13 12 12 12 11 11 10 9 8 7 6 5 4
10 11 11 11 11 12 12 12 12 13 13 12 9 8 8 7 8 8 7 8 9 10 9 9 8 8 8 7 6 5 7 7 6 9 11 13 10 10 9 10 10 7 8 9 6 5 7 9 12 14 15 17 17 17 15 17 16 17 16 15 15 13 13 12 12 11 11 10 10 9 8 7 6 5
13 12 12 11 13 17 21 21 18 17 15 10 11 11 7 7 8 8 7 7 8 8 9 8 7 8 8 8 7 6 9 12 13 11 8 9 10 9 7 6 7 8 11 9 8 8 9 9 8 8 8 9 13 13 16 14 18 18 17 17 16 14 14 13 13 12 12 11 11 11 9 8 6 6
14 13 13 13 23 25 23 20 20 20 21 20 12 10 12 11 7 8 8 8 8 8 9 9 9 9 10 9 9 10 11 10 5 7 9 9 6 7 8 4 4 6 8 9 10 9 8 9 8 8 10 9 12 9 10 10 13 16 18 17 16 16 15 14 13 12 12 12 11 10 8 8 8 8
14 13 13 12 17 19 20 18 22 21 20 20 20 21 18 12 12 9 9 9 8 8 8 8 9 9 11 11 10 11 10 9 12 12 12 9 9 11 10 10 3 4 10 9 10 9 7 9 9 9 10 10 10 9 11 16 18 18 17 16 16 15 14 14 13 12 12 11 11 10 10 10 10 10
12 13 13 11 11 11 17 16 16 20 22 21 20 20 20 19 14 13 12 8 8 8 8 9 9 9 11 10 9 9 9 10 10 10 10 10 13 13 13 11 12 7 11 9 8 9 6 7 9 9 10 10 10 12 14 17 17 17 17 16 15 15 14 14 14 13 13 13 11 10 11 11 11 11
13 12 13 13 11 10 23 17 13 16 18 21 23 20 19 17 12 12 15 15 11 7 9 9 9 10 11 10 9 11 13 11 12 11 11 11 11 13 14 12 8 9 15 11 9 9 7 9 9 10 10 9 9 10 13 16 16 16 16 16 16 16 15 15 15 14 14 13 11 11 11 12 12 12
13 13 12 12 12 12 15 13 15 16 15 16 15 14 13 12 13 11 13 15 17 12 9 10 10 11 10 10 10 11 10 12 13 13 14 15 13 12 16 14 9 8 12 13 9 5 6 9 9 10 8 8 8 8 12 16 17 17 17 16 16 16 16 15 14 14 13 11 12 13 13 13 13 13
12 13 12 12 11 12 12 13 19 18 18 16 14 13 13 13 12 10 7 7 8 10 9 9 10 10 9 10 9 7 8 13 14 15 18 19 17 12 3 6 7 9 11 13 10 11 6 8 9 10 8 7 8 6 8 14 15 16 15 16 16 16 15 15 14 13 12 12 13 14 14 14 14 13
11 12 13 13 13 14 13 17 24 21 17 15 14 14 14 13 13 11 8 8 9 9 9 11 11 9 7 10 8 6 8 9 6 2 6 9 9 9 9 10 6 7 8 11 12 6 6 9 11 6 3 5 7 5 5 11 16 15 15 15 16 16 16 15 14 13 14 14 14 14 15 15 15 14
11 11 14 14 12 14 15 21 23 23 22 12 14 14 13 12 12 12 7 4 6 7 9 11 10 6 7 10 10 10 12 10 8 9 9 9 10 10 10 9 8 8 8 8 11 9 6 8 8 6 2 3 5 4 5 6 13 17 16 16 17 17 16 15 15 16 16 15 15 16 16 16 15 16
10 13 22 19 14 15 16 23 23 22 19 14 14 14 15 15 12 11 9 5 5 3 4 7 9 9 9 10 10 12 13 14 13 12 13 12 12 12 12 13 12 7 8 10 9 7 6 7 6 6 3 4 2 1 1 4 8 15 16 18 18 17 17 17 17 17 16 16 16 17 17 17 15 9
10 11 13 21 19 18 20 23 21 22 19 13 13 13 14 14 13 12 12 10 7 4 3 3 3 4 4 6 5 6 11 14 14 13 13 10 12 13 12 10 7 4 5 11 13 11 5 11 7 8 5 2 0 1 1 3 6 7 7 10 12 17 18 17 18 18 18 18 18 18 17 16 12 8
12 12 12 15 18 22 22 22 22 20 20 14 12 12 12 14 14 12 13 13 10 6 5 3 1 1 2 1 2 2 4 6 10 12 10 11 12 13 14 11 14 14 10 4 13 9 4 9 9 6 4 8 5 3 2 3 4 6 8 9 8 13 16 16 15 19 19 19 19 18 17 15 12 8
11 12 12 11 17 22 22 21 21 20 20 19 13 12 14 13 16 16 12 12 12 6 2 2 2 2 2 3 3 3 5 8 8 6 3 6 11 12 10 9 9 10 4 10 17 8 7 9 10 9 3 5 4 7 4 5 4 5 7 9 11 10 10 10 9 10 15 18 18 17 15 14 13 10
10 11 11 11 17 23 22 21 21 20 19 19 11 13 20 20 20 15 6 7 3 1 1 2 3 3 3 3 3 3 2 2 6 7 5 5 8 10 10 13 13 10 10 13 26 15 10 8 12 12 5 6 3 7 9 5 4 5 5 6 8 9 11 11 10 10 9 8 9 9 10 12 11 13
11 10 11 12 20 21 21 21 21 19 20 15 16 22 22 21 20 15 12 9 6 6 6 5 5 5 5 4 4 4 3 1 1 3 3 3 3 5 2 3 6 8 5 10 12 9 10 9 11 14 10 8 12 6 8 8 7 6 7 7 7 7 8 9 11 10 9 8 7 10 10 10 11 10
10 10 11 14 21 20 21 21 20 18 18 16 21 21 23 21 17 12 13 12 9 7 9 9 9 8 6 5 5 5 4 4 2 4 5 5 4 6 6 6 7 4 9 13 16 14 13 12 11 9 13 15 14 14 9 4 8 11 12 7 7 8 8 9 10 9 8 7 7 7 6 6 5 7
10 14 19 20 19 20 20 20 18 16 17 20 20 22 21 19 12 13 10 11 11 10 10 9 8 8 8 7 5 5 5 4 4 4 6 7 7 8 10 9 7 7 5 4 7 6 6 9 11 7 6 10 12 11 14 15 14 11 13 15 10 7 8 9 10 10 9 8 8 7 7 7 5 5
17 17 18 18 18 16 16 13 12 12 14 18 20 20 19 13 13 12 11 10 11 11 9 9 9 8 7 7 6 7 7 7 7 5 3 7 6 6 8 9 8 7 7 5 4 4 7 9 12 13 10 5 7 12 13 16 10 11 11 12 12 9 6 9 9 9 9 9 7 7 5 5 5 5
11 13 14 13 14 14 17 16 15 15 16 15 15 12 12 12 12 11 10 10 11 10 9 9 8 8 7 7 8 9 9 9 8 8 6 4 4 5 6 10 8 8 7 7 7 4 7 8 9 12 12 9 8 9 9 13 16 12 9 9 13 15 11 10 9 9 8 8 7 7 6 6 5 4
9 9 10 13 11 12 13 14 13 13 12 12 12 12 12 12 13 15 18 16 12 10 9 8 8 9 10 10 8 8 10 9 9 8 7 6 5 4 4 8 7 6 7 7 8 9 9 7 7 6 8 12 13 10 10 10 13 13 12 9 7 8 9 11 11 9 8 9 8 7 5 5 5 4
8 8 10 11 12 13 13 13 13 13 13 13 13 14 13 12 12 12 12 12 12 11 11 10 10 10 9 9 9 9 11 11 10 8 8 9 8 8 8 10 6 6 8 8 8 9 10 11 12 12 11 10 9 13 16 13 9 10 13 11 11 9 8 7 9 9 8 9 8 7 6 4 4 4
7 9 9 10 11 12 12 12 13 13 12 12 13 13 13 13 12 12 11 11 10 11 11 11 11 10 9 10 10 10 11 10 10 10 10 9 8 10 9 10 8 7 7 7 7 8 11 12 14 14 15 15 14 12 6 12 14 12 10 11 11 10 7 7 7 8 7 8 9 8 5 4 3 3
8 9 10 10 10 10 11 11 12 12 12 12 12 12 11 11 12 11 11 11 10 10 10 10 10 10 10 10 10 10 9 9 9 10 9 10 11 10 9 10 9 9 8 8 8 5 7 12 14 14 13 13 13 12 17 9 13 12 11 10 9 10 8 7 7 6 6 6 7 8 5 4 3 2
8 8 8 9 9 9 10 11 10 11 11 11 11 11 12 12 11 11 11 10 10 10 10 10 10 10 10 10 9 9 9 8 9 9 10 10 10 9 10 10 10 10 10 10 8 6 5 6 8 14 15 12 13 10 6 15 10 13 14 11 10 10 9 7 6 5 6 6 5 7 7 6 5 2
9 8 8 8 8 8 9 9 9 10 10 10 10 10 10 10 10 10 11 11 11 11 10 10 10 10 10 9 9 9 9 9 8 9 9 9 9 9 10 10 10 11 12 10 9 9 8 9 7 9 13 13 12 11 6 1 16 16 10 13 11 10 10 8 7 6 4 5 5 5 5 6 4 3
8 9 9 9 9 8 7 7 8 9 9 10 10 10 10 10 10 10 10 11 11 10 10 10 10 10 9 9 9 8 8 8 8 9 8 8 8 8 8 8 8 8 8 8 9 9 9 9 9 8 10 12 12 11 11 8 7 8 10 9 11 8 7 8 8 7 5 3 5 3 4 5 5 4
8 8 9 9 9 8 8 8 7 8 9 9 9 9 9 10 10 10 10 9 9 9 9 10 10 9 10 9 8 8 8 8 8 8 8 7 7 7 7 8 8 7 8 9 9 9 9 9 8 8 8 9 10 8 9 9 6 3 9 10 9 9 6 7 7 6 6 5 5 6 7 5 7 8
8 7 8 8 8 8 8 7 7 7 8 8 8 7 8 8 9 9 9 9 8 8 8 9 9 9 9 9 8 8 8 8 7 7 7 6 7 7 6 6 6 6 8 8 8 8 8 7 7 7 8 8 7 8 8 8 5 5 7 10 10 6 8 7 7 8 6 5 6 7 6 3 3 1
7 8 8 8 7 7 7 7 7 7 7 7 7 7 8 7 8 8 7 8 8 8 8 8 8 8 8 8 8 8 8 8 7 7 7 7 7 7 8 7 7 6 7 7 7 7 6 4 6 11 12 9 8 8 9 8 8 5 6 6 10 10 7 8 9 8 6 6 6 7 6 5 5 3
7 7 8 8 8 7 7 7 7 7 7 7 7 7 8 8 8 10 9 9 9 8 7 7 7 7 7 6 7 7 7 6 7 7 7 7 7 8 9 7 7 6 7 7 6 5 3 4 6 9 8 7 7 8 7 8 8 6 5 5 6 9 11 9 8 8 10 10 9 7 4 4 4 3
6 6 7 8 8 8 7 7 7 7 7 7 7 7 7 8 8 9 8 8 8 7 7 7 6 6 6 6 6 6 6 6 5 5 6 7 6 6 6 6 6 6 6 6 5 5 5 5 7 7 6 6 5 5 8 6 6 6 6 6 6 6 7 11 13 13 11 10 6 2 5 6 6 3
6 6 7 7 7 7 7 7 7 7 6 6 6 6 7 7 8 8 7 7 7 7 6 6 6 6 6 6 6 6 6 5 5 6 5 5 5 5 5 5 6 6 6 6 7 6 6 6 6 5 6 5 5 7 8 7 6 6 6 5 4 7 7 5 7 9 10 12 13 10 4 2 2 7
6 6 6 7 7 7 7 6 6 6 6 6 6 6 7 7 7 7 8 7 7 7 7 7 6 6 6 6 6 7 6 5 6 5 5 5 5 5 5 5 6 6 6 5 6 6 5 4 4 5 5 5 4 6 6 7 7 6 5 6 7 5 5 4 6 6 6 5 11 14 11 12 16 18
Wind_Direction
273 266 263 265 272 270 264 257 249 243 229 225 222 215 217 213 223 209 212 214 212 201 197 192 205 200 197 193 191 187 197 196 182 177 188 194 192 195 193 193 192 189 189 190 193 194 195 192 179 177 181 178 171 172 175 172 177 178 179 186 192 196 173 165 176 181 178 174 167 155 129 127 130 128
290 282 272 262 262 260 259 254 244 241 236 228 223 218 218 213 217 217 211 223 189 203 206 208 189 189 196 189 190 194 198 194 180 182 191 193 195 188 190 191 192 189 189 188 191 193 192 186 178 178 180 177 174 170 171 174 177 178 183 188 195 184 172 166 175 178 178 166 144 140 141 140 142 145
303 296 287 280 269 265 259 252 244 240 238 230 221 218 214 213 217 221 217 234 229 176 194 214 200 180 190 181 187 196 201 194 183 182 195 198 192 183 190 190 191 189 189 187 186 187 186 183 178 179 180 176 176 170 169 176 178 181 187 188 193 175 173 167 173 167 151 149 149 145 150 153 155 158
313 306 298 287 276 268 261 254 243 241 235 229 228 224 216 212 209 215 222 227 234 188 211 198 191 177 182 181 185 198 199 194 187 191 192 193 181 182 191 191 190 189 188 187 186 183 180 180 180 179 180 177 176 172 172 177 182 183 182 185 187 173 174 167 167 158 153 149 150 145 149 161 171 174
320 316 308 299 286 277 269 261 250 241 234 222 214 223 219 214 205 206 212 224 234 228 223 195 195 181 169 186 193 192 193 186 193 188 183 177 182 186 188 189 192 189 189 188 186 182 177 178 179 179 180 178 175 172 172 176 180 180 182 184 181 176 175 167 167 164 157 155 155 151 161 170 180 185
319 317 311 306 299 286 273 266 261 251 240 228 225 222 214 211 208 202 208 221 221 227 199 231 194 173 180 186 189 188 188 192 188 183 187 190 187 189 187 183 191 192 189 188 185 182 177 177 180 179 177 175 174 172 170 175 180 180 182 181 180 177 177 171 171 172 161 157 156 159 167 172 174 174
310 311 313 307 300 290 278 270 264 262 254 246 233 223 214 213 206 200 204 205 213 222 224 199 196 191 184 189 190 199 199 189 181 185 184 187 188 189 186 184 186 190 190 187 185 182 178 178 180 177 177 173 174 173 172 175 180 181 182 180 180 177 178 174 174 174 167 162 166 168 170 174 179 183
308 309 310 312 308 289 276 273 263 253 247 249 260 258 242 225 207 198 203 208 211 208 227 209 205 189 184 206 193 197 190 184 184 194 191 184 186 182 184 184 184 186 189 186 184 182 179 179 179 177 176 174 174 175 175 176 181 183 182 181 182 179 180 176 174 174 175 172 173 175 178 184 188 195
304 309 319 320 315 306 288 276 263 255 251 248 242 242 238 240 239 209 203 213 205 185 210 228 213 188 201 196 194 184 184 180 181 201 189 176 190 186 179 173 187 179 186 185 185 183 181 181 179 177 177 176 176 177 177 178 181 184 184 184 185 184 183 178 174 176 179 177 179 184 188 193 199 206
331 343 341 342 339 334 319 293 272 262 258 253 242 236 232 229 220 222 228 214 204 208 216 218 223 198 196 193 200 191 187 166 180 192 190 187 186 144 151 183 178 162 175 179 188 185 182 183 179 177 178 178 178 179 179 180 182 185 187 187 188 187 184 181 178 178 180 181 183 187 189 194 204 210
342 332 340 341 342 344 348 344 334 316 286 256 251 242 238 225 218 213 216 217 210 207 212 217 218 212 207 193 194 197 184 179 180 180 168 172 177 164 174 170 176 163 175 187 181 182 181 179 182 181 179 180 180 180 181 182 183 185 188 189 189 188 184 183 182 181 182 184 184 186 185 188 189 211
340 340 341 335 337 341 343 343 346 358 346 323 279 252 237 227 222 223 216 209 214 222 221 216 214 212 206 203 203 176 166 151 185 194 182 178 173 180 181 180 169 168 168 172 178 173 168 181 185 181 183 183 182 181 181 183 185 186 189 190 191 188 184 184 185 185 184 184 181 182 185 182 182 175
344 341 341 338 339 345 346 345 349 347 347 344 333 316 277 233 228 228 224 214 212 213 214 218 210 214 212 204 183 149 180 189 193 187 178 194 188 170 167 167 179 169 172 177 175 182 181 172 181 174 181 192 185 184 182 188 189 189 190 191 191 187 184 185 187 186 185 184 184 186 184 177 165 149
346 344 340 337 344 347 345 346 347 345 342 339 332 316 319 301 256 226 226 217 214 213 213 213 208 208 215 202 182 177 197 195 136 135 182 189 148 144 166 139 206 174 170 167 181 192 183 179 180 181 193 195 188 185 187 192 190 193 191 190 189 185 183 183 185 185 186 187 186 183 172 161 152 145
342 342 341 340 343 344 345 344 345 340 337 334 330 325 315 299 285 269 230 224 212 214 215 216 210 209 216 209 189 191 183 176 176 178 186 174 145 163 169 190 191 210 175 176 182 191 180 181 185 192 198 189 189 190 197 196 192 191 190 188 185 182 179 178 179 182 185 187 185 176 164 158 151 145
340 340 339 340 341 343 344 343 338 337 334 332 327 322 314 307 283 259 255 235 218 210 214 218 214 209 219 211 193 187 173 180 178 180 175 165 169 177 191 188 188 184 163 166 183 194 165 183 193 197 204 196 193 197 198 194 191 187 186 185 181 177 174 174 176 179 185 187 182 166 158 149 141 135
342 339 339 340 340 338 344 344 341 339 331 327 326 319 316 306 285 256 255 257 243 211 218 220 218 213 218 217 204 193 187 175 174 169 177 183 187 189 191 191 167 164 176 160 176 189 182 180 193 204 207 201 196 201 199 191 188 186 184 181 178 175 173 173 176 180 185 184 169 156 147 140 137 135
342 341 338 338 339 339 341 340 343 337 331 325 321 321 318 310 303 274 239 242 249 248 229 216 221 220 215 217 211 205 182 170 181 178 188 187 184 184 200 189 162 144 157 168 154 184 184 183 185 208 206 192 203 204 195 187 186 187 182 179 177 174 171 172 176 180 179 165 153 149 142 138 138 136
341 340 339 337 336 336 335 339 342 335 332 326 318 315 316 314 305 289 269 236 230 231 232 232 225 228 216 223 225 209 192 195 191 187 189 188 188 183 91 81 123 153 176 166 163 200 177 170 184 211 191 181 199 196 182 183 184 183 180 176 174 170 169 171 175 174 160 150 148 142 139 138 137 134
342 340 341 341 340 338 333 336 337 335 330 322 318 317 316 315 309 300 267 256 247 239 231 226 230 227 210 213 216 192 195 207 200 109 55 69 89 119 151 166 159 175 191 174 164 181 164 180 187 180 134 153 184 170 169 179 176 177 174 171 169 169 169 171 168 156 150 149 144 140 139 137 133 129
343 341 341 344 341 338 337 336 334 333 334 324 324 316 316 314 312 308 305 287 279 276 265 267 270 282 266 231 201 189 194 190 146 134 138 162 151 152 170 181 165 186 172 193 186 171 153 179 165 127 65 129 156 165 172 165 176 170 171 168 169 168 167 163 155 151 149 145 143 142 139 134 129 120
341 341 343 345 343 340 337 335 333 335 339 334 329 325 321 322 318 313 310 274 275 283 264 259 257 257 252 243 219 200 194 169 152 157 182 181 169 175 177 183 191 155 162 191 179 160 180 149 140 116 108 76 37 46 133 163 171 169 168 168 166 164 162 158 152 148 146 143 142 141 136 133 127 117
339 339 344 344 341 340 336 333 334 337 343 335 332 330 324 318 312 305 316 305 274 252 236 252 240 233 236 240 216 219 214 180 176 182 189 166 174 179 186 179 125 116 218 196 173 180 156 150 169 141 114 83 330 64 45 142 153 154 151 158 161 162 156 151 146 143 142 142 143 141 138 135 126 118
339 341 339 343 340 339 338 336 336 338 343 341 333 334 330 317 306 305 303 293 289 267 235 216 138 122 53 66 92 130 197 221 202 195 185 170 174 182 191 179 182 188 190 155 176 167 138 156 160 192 148 139 171 135 88 92 119 132 137 140 140 147 137 135 137 141 142 143 142 141 140 138 133 126
338 339 340 337 338 339 338 337 337 340 344 345 343 336 328 311 293 294 275 274 270 238 198 121 94 65 67 44 57 112 162 199 215 225 211 183 188 181 173 176 189 211 165 164 172 164 161 176 162 162 99 76 106 125 104 97 98 126 146 145 139 144 139 136 133 135 140 139 141 142 142 143 139 134
342 339 336 335 337 338 339 341 340 341 347 348 353 338 333 328 336 343 282 257 259 108 77 97 71 39 46 32 35 46 63 207 213 204 192 203 204 197 188 183 184 201 202 190 172 172 145 170 167 162 137 118 103 124 126 110 106 115 115 125 134 141 138 135 131 133 135 136 135 141 143 136 130 132
337 334 335 332 338 341 343 344 343 342 349 357 352 347 349 348 351 5 8 357 17 32 21 23 34 32 24 31 22 21 14 352 101 127 144 156 153 125 109 229 222 205 131 138 183 173 163 161 168 164 161 136 131 127 126 137 136 123 105 113 118 122 127 128 131 135 137 134 124 117 108 98 104 102
336 338 340 338 340 344 347 347 345 343 354 354 354 358 357 358 1 11 20 12 1 31 43 31 22 17 10 16 20 17 1 351 1 91 96 85 82 94 82 66 57 74 146 173 186 187 172 151 172 182 153 149 148 151 138 75 127 143 134 121 112 123 133 130 129 125 122 119 122 122 117 118 119 110
343 339 340 343 347 348 349 349 351 353 353 353 0 4 4 5 11 9 15 23 12 19 31 38 26 14 5 4 5 4 11 4 5 58 72 78 82 89 86 72 61 51 60 121 155 164 162 154 150 132 148 161 148 152 145 152 150 151 146 137 129 136 129 129 128 129 128 127 131 134 142 142 133 124
344 345 345 347 351 351 353 356 0 357 355 356 4 6 9 12 11 12 7 15 28 19 13 28 33 15 358 355 360 21 32 34 18 1 78 105 97 102 103 88 55 41 36 50 83 105 137 151 156 152 145 132 146 147 141 133 141 144 149 138 127 101 117 131 129 128 129 129 124 121 107 108 120 128
350 346 350 351 352 357 355 2 4 6 2 4 6 7 9 11 12 14 14 14 22 19 12 17 27 24 12 354 11 26 29 31 18 6 353 47 75 84 93 94 83 62 43 46 47 64 114 121 127 139 131 115 101 121 140 137 136 141 134 136 147 146 152 131 125 123 124 116 108 95 97 94 88 75
346 348 351 359 4 4 8 7 8 7 5 6 6 8 9 10 11 12 15 21 23 18 10 11 14 30 28 21 9 26 38 29 19 10 19 16 40 27 87 85 74 79 70 55 59 53 63 78 99 94 117 132 127 120 112 122 132 134 129 130 98 94 118 131 129 127 124 119 106 102 103 107 104 94
343 356 6 7 6 10 9 8 6 3 4 4 5 9 10 12 13 15 19 20 15 7 14 17 17 20 27 26 18 29 42 34 23 10 34 30 33 39 57 77 77 79 92 82 78 72 78 76 70 79 77 66 93 128 134 124 119 128 133 128 123 119 125 117 119 122 123 106 110 113 105 81 85 103
356 4 7 7 5 4 7 7 6 4 4 3 4 5 8 12 14 13 15 15 12 13 15 13 18 18 25 29 24 33 39 37 35 25 33 43 40 53 54 60 53 49 65 73 72 99 103 99 94 83 79 73 64 51 66 124 126 127 117 120 116 118 117 120 112 117 117 129 132 123 109 89 64 68
8 4 8 5 4 3 4 7 5 4 4 4 5 5 5 12 12 11 15 9 9 17 17 19 20 20 22 23 22 29 28 35 37 39 36 45 49 50 52 61 52 44 47 58 58 48 95 113 111 100 91 90 76 51 32 35 123 111 114 107 118 118 120 111 121 118 119 119 125 125 116 101 89 47
358 1 3 2 5 1 7 5 3 5 6 3 7 4 6 9 9 10 13 4 16 19 20 19 21 20 20 20 22 23 22 27 33 36 40 41 47 48 50 52 54 52 50 46 39 26 44 67 105 117 118 113 106 93 56 12 41 133 120 122 117 123 124 127 121 122 122 123 128 132 135 149 152 125
357 355 355 357 354 1 5 1 2 5 6 6 7 8 7 8 7 9 5 9 24 24 20 24 23 20 21 19 22 24 25 28 31 30 38 39 45 42 49 43 43 45 51 45 41 35 41 54 49 91 108 106 100 99 65 341 41 33 119 125 132 137 140 135 129 113 115 122 119 116 133 135 143 137
1 358 1 356 354 350 353 357 359 3 4 6 6 6 9 7 7 9 10 19 18 20 20 25 23 21 22 20 23 22 27 29 32 34 32 37 50 51 47 52 45 43 47 41 42 46 50 55 58 59 79 94 106 103 102 76 70 24 17 124 130 135 124 125 117 125 103 67 88 51 83 115 128 138
1 359 3 357 354 353 352 350 355 359 359 3 4 5 5 8 9 10 14 18 17 18 18 24 24 23 24 20 20 23 31 34 38 35 35 34 42 52 51 53 59 46 51 46 34 37 45 57 54 58 72 95 102 113 111 108 75 55 31 44 123 119 122 124 125 114 113 96 83 72 59 75 84 103
351 353 357 357 352 354 353 352 356 356 0 359 359 357 2 5 9 11 12 14 18 18 21 20 18 23 26 24 21 22 34 38 38 39 38 39 37 44 48 45 53 58 65 60 56 43 45 44 48 59 70 70 80 83 96 93 95 62 56 26 29 122 141 132 129 130 111 116 125 114 119 132 84 12
348 353 351 352 352 355 352 350 353 350 357 355 359 360 1 358 5 3 2 8 13 21 24 21 20 22 22 22 25 28 33 31 31 29 30 39 41 40 42 49 48 40 62 64 64 57 39 25 80 96 96 99 99 97 87 90 87 85 62 39 34 53 96 134 139 137 128 146 134 126 126 124 130 94
350 350 346 348 349 349 353 352 352 351 350 349 360 4 1 5 5 3 3 4 12 16 24 24 20 22 24 22 24 29 41 36 29 28 30 32 31 31 29 32 42 34 54 57 59 62 56 71 87 83 90 91 93 97 102 110 112 95 89 76 56 45 56 79 100 119 141 148 135 114 84 62 59 95
353 349 347 343 344 349 354 353 355 356 348 347 360 1 8 6 7 7 6 4 1 8 11 15 16 23 23 25 28 34 38 32 26 28 27 30 34 37 33 34 45 51 64 71 67 72 69 77 84 85 72 68 57 91 107 105 99 101 95 87 82 76 59 65 84 83 68 49 42 125 162 154 137 167
348 351 342 339 344 346 350 355 356 2 357 358 355 1 9 10 9 4 8 6 4 0 354 4 7 16 14 14 23 36 38 33 32 31 32 35 40 46 51 44 48 55 59 70 75 65 72 68 61 78 91 87 91 102 111 108 99 100 105 97 94 89 90 91 82 79 67 46 32 26 26 147 150 171
342 347 342 338 345 348 352 352 357 360 5 3 2 3 6 11 8 4 7 6 7 3 6 5 7 7 11 14 28 29 17 26 39 38 42 44 42 48 50 56 57 57 60 72 90 80 71 67 54 60 67 69 69 96 101 106 112 112 99 102 100 97 106 110 104 93 80 64 25 29 50 89 100 99